Flag for Brazil Weather past 2 weeks in Boa Vista, Roraima, Brazil

Now
86 °F

Scattered showers. Broken clouds.


Feels Like: 92 °F
Forecast: 75 / 85 °F
Wind: 10 mph from South

Location: Boa Vista Aeropor-To

Current Time: Jul 28, 2015 at 4:07:44 PM

Latest Report: Jul 28, 2015 at 3:00 PM


Visibility: N/A

Pressure: N/A

Humidity: 62%

Dew point: 72 °F

Location of Boa VistaLocation

Historic Weather in Boa Vista — Graph

°F

Boa Vista temperature yesterday

Maximum temperature yesterday: 88 °F (at 1:00 PM)
Minimum temperature yesterday: 73 °F (at 4:00 AM)
Average temperature yesterday: 80 °F

Past Weeks' High & Low Weather Summary

 TemperatureHumidityPressure
High90 °F (Jul 14, 4:00 PM)100% (Jul 15, 3:00 PM)30.07 "Hg (Jul 15, 3:00 PM)
Low32 °F (Jul 22, 5:00 AM)19% (Jul 21, 7:00 PM)29.80 "Hg (Jul 27, 4:00 PM)
Average78 °F80%29.94 "Hg
* Reported Jul 13 2:00 PM — Jul 28 2:00 PM, Boa Vista, Weather by CustomWeather, © 2015

Note: Actual official high and low records may vary slightly from our data, if they occured in-between our weather recording intervals... More about our weather records

Advertising

Boa Vista weather history for previous 24 hours

 ConditionsComfort  
Time TempWeatherWind HumidityBarometerVisibility
2:00 PM
Tue, Jul 28
88 °FScattered showers. Partly sunny.10 mph55%30.07 "HgN/A
1:00 PM88 °FScattered showers. Partly sunny.12 mph55%29.89 "HgN/A
12:00 PM86 °FPartly sunny.10 mph59%29.92 "HgN/A
11:00 AM84 °FScattered clouds.13 mph66%29.95 "HgN/A
10:00 AM84 °FScattered clouds.16 mph66%29.95 "HgN/A
9:00 AM82 °FPassing clouds.13 mph70%29.95 "HgN/A
8:00 AM79 °FPassing clouds.10 mph79%29.92 "HgN/A
7:00 AM77 °FSunny.3 mph83%29.92 "Hg10 mi
6:00 AM75 °FPassing clouds.3 mph89%29.92 "HgN/A
5:00 AM77 °FPassing clouds.3 mph83%29.89 "HgN/A
4:00 AM77 °FPassing clouds.1 mph83%29.86 "HgN/A
3:00 AM77 °FPassing clouds.2 mph83%29.86 "HgN/A
2:00 AM77 °FPassing clouds.3 mph83%29.86 "HgN/A
1:00 AM77 °FPassing clouds.2 mph83%29.86 "HgN/A
12:00 AM79 °FPassing clouds.3 mph79%29.92 "HgN/A
11:00 PM
Mon, Jul 27
79 °FPassing clouds.3 mph79%29.92 "HgN/A
10:00 PM79 °FPassing clouds.3 mph79%29.92 "HgN/A
9:00 PM79 °FPassing clouds.3 mph79%29.89 "HgN/A
8:00 PM82 °FPassing clouds.2 mph66%29.86 "HgN/A
7:00 PM82 °FPartly cloudy.3 mph66%29.86 "HgN/A
6:00 PM84 °FScattered clouds.3 mph62%29.83 "HgN/A
5:00 PM86 °FScattered clouds.8 mph55%29.80 "HgN/A
4:00 PM86 °FScattered clouds.8 mph55%29.80 "HgN/A
Weather by CustomWeather, © 2015

See weather overviewHow to use our weather pages